Regional Weather Roundup
Issued by NWS

Home | Current Version | Previous Version | Graphics & Text | Print | Product List | Glossary On
Versions: 1 2 3 4 5 6 7 8 9 10 11 12 13 14 15 16 17 18 19 20 21 22 23 24 25 26 27 28
000
ASUS45 KBOI 230810
RWRID

IDAHO REGIONAL WEATHER ROUNDUP
NATIONAL WEATHER SERVICE BOISE ID
200 AM MDT SAT SEP 23 2017

NOTE: "FAIR" INDICATES FEW OR NO CLOUDS BELOW 12000 FEET
WITH NO SIGNIFICANT WEATHER AND/OR OBSTRUCTIONS TO VISIBILITY

IDZ012-014-230900-
SOUTHWEST IDAHO


CITY           SKY/WX    TMP DP  RH WIND       PRES   REMARKS
BOISE          CLEAR     42  37  82 SE5       30.01R
CALDWELL       CLEAR     41  40  96 NW3       30.03R
MOUNTAIN HOME  CLEAR     37  37 100 CALM      30.00S
$$

IDZ016-017-230900-
SOUTHCENTRAL IDAHO


CITY           SKY/WX    TMP DP  RH WIND       PRES   REMARKS
BURLEY         CLEAR     34  32  92 SW3       30.01R
JEROME         CLEAR     36  35  96 SE3       30.02R
TWIN FALLS     CLEAR     35  33  92 S7        30.02R WCI  29
$$

IDZ019>023-230900-
SOUTHEAST IDAHO


CITY           SKY/WX    TMP DP  RH WIND       PRES   REMARKS
IDAHO FALLS    CLEAR     36  33  89 SW6       30.02S WCI  31
POCATELLO      CLEAR     35  32  88 SE5       30.03R WCI  31
REXBURG        PTCLDY    37  33  85 S5        30.02R WCI  33
$$

IDZ006-010-011-018-031-032-230900-
CENTRAL IDAHO MOUNTAINS


CITY           SKY/WX    TMP DP  RH WIND       PRES   REMARKS
MCCALL         PTCLDY    37  32  82 N7        30.00R WCI  32
HAILEY         CLEAR     34  32  93 N3        30.02R
STANLEY          N/A     31  29  92 CALM      30.02R
SALMON         CLOUDY    43  33  68 CALM      30.03R
CHALLIS        CLOUDY    37  34  89 SE3       30.01R
$$

IDZ002-004-006-007-026-230900-
NORTHERN IDAHO


CITY           SKY/WX    TMP DP  RH WIND       PRES   REMARKS
LEWISTON       CLOUDY    48  44  86 CALM      30.05R
LOWELL           N/A     43  40  89 CALM      30.09R
COEUR D`ALENE  CLOUDY    48  40  73 SE6       30.04R
MULLAN PASS    CLOUDY    31  29  92 S3        30.02R FOG
$$




USA.gov is the U.S. government's official web portal to all federal, state and local government web resources and services.